• In Uzbekistan
  • List of Countries
  • For 7 days
  • Water Temperature
  • Satellite Maps
  • Weather Map
  • Weather Widgets
  • user-avatar
    Login

    Hourly Weather Calgary

    Today, 20 July, Friday

    Time Temperature Precipitation Wind Pressure Humidity
    00:00 +16°C° 0 mm 3 mps 666 mmHg 67%
    01:00 +15°C° 0 mm 2 mps 665 mmHg 67%
    02:00 +14°C° 0 mm 2 mps 665 mmHg 69%
    03:00 +13°C° 0 mm 2 mps 665 mmHg 72%
    04:00 +13°C° 0 mm 2 mps 664 mmHg 74%
    05:00 +15°C° 0 mm 2 mps 665 mmHg 69%
    06:00 +17°C° 0 mm 2 mps 665 mmHg 65%
    07:00 +19°C° 0 mm 2 mps 665 mmHg 60%
    08:00 +21°C° 0.1 mm 2 mps 666 mmHg 56%
    09:00 +24°C° 0.1 mm 2 mps 666 mmHg 51%
    10:00 +26°C° 0.1 mm 2 mps 666 mmHg 46%
    11:00 +26°C° 0.2 mm 3 mps 666 mmHg 42%
    12:00 +27°C° 0.2 mm 3 mps 666 mmHg 37%
    13:00 +28°C° 0.2 mm 4 mps 666 mmHg 32%
    14:00 +28°C° 0.5 mm 4 mps 666 mmHg 33%
    15:00 +28°C° 0.5 mm 5 mps 666 mmHg 33%
    16:00 +28°C° 0.5 mm 5 mps 666 mmHg 34%
    17:00 +26°C° 0.5 mm 5 mps 666 mmHg 39%
    18:00 +22°C° 0.5 mm 4 mps 666 mmHg 44%
    19:00 +20°C° 0.5 mm 4 mps 666 mmHg 48%
    20:00 +18°C° 0 mm 4 mps 666 mmHg 54%
    21:00 +16°C° 0 mm 3 mps 666 mmHg 60%
    22:00 +13°C° 0 mm 3 mps 666 mmHg 66%
    23:00 +13°C° 0 mm 2 mps 666 mmHg 67%

    Tomorrow, 21 July, Saturday

    Time Temperature Precipitation Wind Pressure Humidity
    00:00 +12°C° 0 mm 2 mps 666 mmHg 68%
    01:00 +10°C° 0 mm 2 mps 666 mmHg 69%
    02:00 +9°C° 0 mm 2 mps 666 mmHg 69%
    03:00 +10°C° 0 mm 1 mps 666 mmHg 69%
    04:00 +9°C° 0 mm 1 mps 666 mmHg 69%
    05:00 +11°C° 0 mm 1 mps 667 mmHg 64%
    06:00 +13°C° 0 mm 1 mps 667 mmHg 60%
    07:00 +16°C° 0 mm 1 mps 668 mmHg 55%
    08:00 +18°C° 0 mm 2 mps 668 mmHg 49%
    09:00 +19°C° 0 mm 2 mps 668 mmHg 44%
    10:00 +21°C° 0 mm 3 mps 668 mmHg 38%
    11:00 +22°C° 0 mm 3 mps 668 mmHg 34%
    12:00 +25°C° 0 mm 4 mps 668 mmHg 29%
    13:00 +26°C° 0 mm 4 mps 668 mmHg 24%
    14:00 +25°C° 0 mm 4 mps 668 mmHg 27%
    15:00 +25°C° 0 mm 5 mps 668 mmHg 29%
    16:00 +23°C° 0 mm 5 mps 667 mmHg 31%
    17:00 +21°C° 0 mm 5 mps 668 mmHg 42%
    18:00 +19°C° 0 mm 5 mps 668 mmHg 53%
    19:00 +15°C° 0 mm 4 mps 668 mmHg 64%
    20:00 +15°C° 0 mm 5 mps 669 mmHg 63%
    21:00 +14°C° 0 mm 5 mps 669 mmHg 63%
    22:00 +13°C° 0 mm 5 mps 670 mmHg 62%
    23:00 +13°C° 0 mm 5 mps 670 mmHg 59%

    Day after tomorrow, 22 July, Sunday

    Time Temperature Precipitation Wind Pressure Humidity
    00:00 +14°C° 0 mm 5 mps 671 mmHg 57%
    01:00 +14°C° 0 mm 5 mps 671 mmHg 54%
    02:00 +13°C° 0 mm 4 mps 672 mmHg 56%
    03:00 +12°C° 0 mm 4 mps 672 mmHg 58%
    04:00 +12°C° 0 mm 4 mps 672 mmHg 60%
    05:00 +13°C° 0 mm 5 mps 673 mmHg 58%
    06:00 +15°C° 0 mm 5 mps 673 mmHg 55%
    07:00 +17°C° 0 mm 5 mps 674 mmHg 52%
    08:00 +19°C° 0 mm 5 mps 674 mmHg 50%
    09:00 +20°C° 0 mm 5 mps 675 mmHg 47%
    10:00 +21°C° 0 mm 4 mps 675 mmHg 45%
    11:00 +20°C° 0.4 mm 4 mps 675 mmHg 51%
    12:00 +20°C° 0.4 mm 4 mps 675 mmHg 57%
    13:00 +20°C° 0.4 mm 4 mps 674 mmHg 63%
    14:00 +19°C° 0.8 mm 4 mps 674 mmHg 68%
    15:00 +18°C° 0.8 mm 4 mps 674 mmHg 73%
    16:00 +17°C° 0.8 mm 4 mps 674 mmHg 78%
    17:00 +15°C° 0.5 mm 4 mps 674 mmHg 82%
    18:00 +14°C° 0.5 mm 3 mps 674 mmHg 85%
    19:00 +13°C° 0.5 mm 3 mps 675 mmHg 89%
    20:00 +12°C° 0.9 mm 3 mps 675 mmHg 91%
    21:00 +12°C° 0.9 mm 3 mps 675 mmHg 93%
    22:00 +11°C° 0.9 mm 3 mps 676 mmHg 94%
    23:00 +12°C° 0.9 mm 2 mps 676 mmHg 94%

    23 July, Monday

    Time Temperature Precipitation Wind Pressure Humidity
    00:00 +10°C° 0.9 mm 2 mps 676 mmHg 94%
    01:00 +10°C° 0.9 mm 2 mps 676 mmHg 93%
    02:00 +10°C° 0 mm 2 mps 676 mmHg 93%
    03:00 +9°C° 0 mm 2 mps 676 mmHg 93%
    04:00 +9°C° 0 mm 2 mps 676 mmHg 93%
    05:00 +10°C° 0 mm 2 mps 676 mmHg 88%
    06:00 +12°C° 0 mm 2 mps 676 mmHg 83%
    07:00 +13°C° 0 mm 2 mps 676 mmHg 78%
    08:00 +15°C° 0 mm 2 mps 676 mmHg 68%
    09:00 +16°C° 0 mm 2 mps 676 mmHg 58%
    10:00 +17°C° 0 mm 3 mps 677 mmHg 49%
    11:00 +18°C° 0 mm 2 mps 676 mmHg 47%
    12:00 +19°C° 0 mm 2 mps 676 mmHg 46%
    13:00 +20°C° 0 mm 2 mps 676 mmHg 44%
    14:00 +20°C° 0 mm 2 mps 676 mmHg 46%
    15:00 +20°C° 0 mm 2 mps 676 mmHg 47%
    16:00 +20°C° 0 mm 2 mps 676 mmHg 49%
    17:00 +18°C° 0 mm 2 mps 675 mmHg 56%
    18:00 +17°C° 0 mm 2 mps 675 mmHg 63%
    19:00 +15°C° 0 mm 1 mps 675 mmHg 70%
    20:00 +14°C° 0.1 mm 1 mps 675 mmHg 75%
    21:00 +13°C° 0.1 mm 1 mps 675 mmHg 79%
    22:00 +11°C° 0.1 mm 1 mps 675 mmHg 84%
    23:00 +11°C° 0 mm 1 mps 675 mmHg 85%

    24 July, Tuesday

    Time Temperature Precipitation Wind Pressure Humidity
    00:00 +11°C° 0 mm 1 mps 675 mmHg 86%
    01:00 +9°C° 0 mm 2 mps 675 mmHg 87%
    02:00 +9°C° 0 mm 2 mps 675 mmHg 87%
    03:00 +10°C° 0 mm 1 mps 675 mmHg 87%
    04:00 +10°C° 0 mm 1 mps 675 mmHg 87%
    05:00 +12°C° 0 mm 1 mps 676 mmHg 79%
    06:00 +14°C° 0 mm 1 mps 676 mmHg 71%
    07:00 +16°C° 0 mm 1 mps 677 mmHg 63%
    08:00 +19°C° 0 mm 1 mps 677 mmHg 59%
    09:00 +19°C° 0 mm 2 mps 677 mmHg 55%
    10:00 +21°C° 0 mm 3 mps 677 mmHg 50%
    11:00 +21°C° 0 mm 3 mps 677 mmHg 49%
    12:00 +22°C° 0 mm 3 mps 677 mmHg 47%
    13:00 +24°C° 0 mm 3 mps 676 mmHg 45%
    14:00 +24°C° 0 mm 3 mps 676 mmHg 46%
    15:00 +23°C° 0 mm 4 mps 676 mmHg 47%
    16:00 +23°C° 0 mm 4 mps 676 mmHg 48%
    17:00 +21°C° 0 mm 4 mps 675 mmHg 55%
    18:00 +20°C° 0 mm 3 mps 675 mmHg 61%
    19:00 +18°C° 0 mm 3 mps 675 mmHg 67%
    20:00 +17°C° 0.1 mm 3 mps 675 mmHg 71%
    21:00 +15°C° 0.1 mm 2 mps 675 mmHg 75%
    22:00 +14°C° 0.1 mm 2 mps 674 mmHg 79%
    23:00 +13°C° 0 mm 2 mps 674 mmHg 80%

    25 July, Wednesday

    Time Temperature Precipitation Wind Pressure Humidity
    00:00 +12°C° 0 mm 2 mps 674 mmHg 80%
    01:00 +12°C° 0 mm 2 mps 674 mmHg 80%
    02:00 +12°C° 0 mm 2 mps 674 mmHg 80%
    03:00 +10°C° 0 mm 2 mps 673 mmHg 80%
    04:00 +10°C° 0 mm 2 mps 673 mmHg 80%
    05:00 +13°C° 0 mm 2 mps 674 mmHg 73%
    06:00 +15°C° 0 mm 2 mps 674 mmHg 67%
    07:00 +17°C° 0 mm 2 mps 674 mmHg 60%
    08:00 +19°C° 0 mm 2 mps 674 mmHg 56%
    09:00 +21°C° 0 mm 3 mps 675 mmHg 52%
    10:00 +24°C° 0 mm 3 mps 675 mmHg 47%
    11:00 +24°C° 0 mm 3 mps 675 mmHg 47%
    12:00 +25°C° 0 mm 3 mps 675 mmHg 47%
    13:00 +26°C° 0 mm 3 mps 674 mmHg 47%
    14:00 +25°C° 0.2 mm 3 mps 674 mmHg 49%
    15:00 +25°C° 0.2 mm 2 mps 674 mmHg 52%
    16:00 +24°C° 0.2 mm 2 mps 674 mmHg 54%
    17:00 +23°C° 0 mm 2 mps 674 mmHg 59%
    18:00 +21°C° 0 mm 1 mps 674 mmHg 64%
    19:00 +20°C° 0 mm 1 mps 674 mmHg 68%
    20:00 +19°C° 0 mm 1 mps 674 mmHg 71%
    21:00 +16°C° 0 mm 1 mps 674 mmHg 75%
    22:00 +15°C° 0 mm 1 mps 674 mmHg 78%
    23:00 +15°C° 0 mm 1 mps 674 mmHg 77%
    Show more